weather.gov     
National Weather Service

Terminal Aerodrome Forecast
NWS Homepage
This page is being discontinued on March 12, 2014.
The same data is available at this site. Please update your bookmarks.
Thank you, and we apologize for the inconvenience.
Please send an email to SR-SRH.Webmaster@noaa.gov with any concerns.


Current Version
Previous Version:    01  02  03  04  05  06  07  08  09  10  11  12  13  14  15  16  17  18  19  20  21  22  23  24  25  26  27  28  29  
[Printable]
841
FTUS45 KMSO 211834 AAA
TAFBTM
TAF AMD
KBTM 211834Z 2119/2218 31012G20KT 3SM RA BR SCT015 BKN020 OVC030
     FM212200 28015G25KT P6SM -RA BKN040 OVC050
     FM220300 30009KT P6SM OVC060
     FM221000 VRB03KT P6SM VCFG FEW001=




841
FTUS45 KMSO 211834 AAA
TAFBTM
TAF AMD
KBTM 211834Z 2119/2218 31012G20KT 3SM RA BR SCT015 BKN020 OVC030
     FM212200 28015G25KT P6SM -RA BKN040 OVC050
     FM220300 30009KT P6SM OVC060
     FM221000 VRB03KT P6SM VCFG FEW001=


U.S. Dept. of Commerce
NOAA National Weather Service
1325 East West Highway
Silver Spring, MD 20910
E-mail: w-nws.webmaster@noaa.gov
Page last modified: May 16, 2007
NATIONAL WEATHER SERVICE: for Safety, for Work, for Fun - FOR LIFE